Flag for China Weather past 2 weeks in Lanchow, Gansu, China

Now
79 °F

Sunny.


Feels Like: 77 °F
Forecast: 48 / 77 °F
Wind: 6 mph from North

Location: Lanzhou / Zhongchuan

Current Time: Apr 28, 2015 at 3:31:28 PM

Latest Report: Apr 28, 2015 at 3:00 PM


Visibility: 10 mi

Pressure: 30.01 "Hg

Humidity: 8%

Dew point: 12 °F

Location of LanchowLocation

Historic Weather in Lanchow — Graph

°F

Lanchow temperature yesterday

Maximum temperature yesterday: 77 °F (at 4:00 PM)
Minimum temperature yesterday: 39 °F (at 5:00 AM)
Average temperature yesterday: 59 °F

Past Weeks' High & Low Weather Summary

 TemperatureHumidityPressure
High77 °F (Apr 27, 4:00 PM)100% (Apr 21, 3:00 AM)30.36 "Hg (Apr 21, 3:00 AM)
Low34 °F (Apr 21, 3:00 AM)8% (Apr 27, 3:00 PM)29.74 "Hg (Apr 17, 5:00 AM)
Average52 °F42%30.10 "Hg
* Reported Apr 13 2:00 PM — Apr 28 2:00 PM, Lanchow, Weather by CustomWeather, © 2015

Note: Actual official high and low records may vary slightly from our data, if they occured in-between our weather recording intervals... More about our weather records

Advertising

Lanchow weather history for previous 24 hours

 ConditionsComfort  
Time TempWeatherWind HumidityBarometerVisibility
2:00 PM
Tue, Apr 28
77 °FSunny.3 mph11%30.04 "Hg10 mi
1:00 PM75 °FPassing clouds.6 mph9%30.07 "HgN/A
12:00 PM75 °FPassing clouds.6 mph12%30.09 "HgN/A
11:00 AM70 °FPassing clouds.3 mph12%30.09 "HgN/A
10:00 AM64 °FSunny.3 mph15%30.09 "Hg10 mi
9:00 AM61 °FSunny.1 mph20%30.09 "Hg10 mi
8:00 AM54 °FPassing clouds.6 mph28%30.09 "HgN/A
7:00 AM46 °FClear.6 mph32%30.07 "Hg10 mi
6:00 AM46 °FClear.8 mph29%30.04 "Hg10 mi
5:00 AM48 °FClear.10 mph27%30.04 "Hg10 mi
4:00 AM46 °FClear.8 mph34%30.04 "Hg10 mi
3:00 AM45 °FClear.8 mph39%30.04 "Hg10 mi
2:00 AM48 °FClear.6 mph34%30.07 "Hg10 mi
1:00 AM48 °FClear.6 mph34%30.07 "Hg10 mi
12:00 AM48 °FClear.6 mph37%30.07 "Hg10 mi
11:00 PM
Mon, Apr 27
52 °FClear.3 mph30%30.04 "Hg10 mi
10:00 PM54 °FPassing clouds.6 mph30%30.04 "HgN/A
9:00 PM59 °FClear.1 mph25%30.01 "Hg10 mi
8:00 PM68 °FSunny.3 mph14%29.98 "Hg10 mi
7:00 PM73 °FPassing clouds.3 mph9%29.98 "HgN/A
6:00 PM75 °FPassing clouds.6 mph8%29.98 "HgN/A
5:00 PM75 °FSunny.6 mph9%29.98 "Hg10 mi
4:00 PM77 °FSunny.6 mph9%29.98 "Hg10 mi
3:00 PM75 °FSunny.3 mph8%30.01 "Hg10 mi
Weather by CustomWeather, © 2015

See weather overviewHow to use our weather pages